Terminal Aerodrome Forecast
Issued by NWS

Home | Current Version | Previous Version | Graphics & Text | Print | Product List | Glossary On
Versions: 1 2 3 4 5 6 7 8 9 10 11 12 13 14 15 16 17 18 19 20 21 22 23 24 25 26
000
FTUS45 KGGW 201500 AAA
TAFGDV
TAF AMD
KGDV 201543Z 2016/2112 14005KT 2SM BR OVC002
     FM201700 17005KT P6SM BKN120
      TEMPO 2017/2019 3SM BR SCT005
      AMD LTD TO CLD VIS AND WIND=

USA.gov is the U.S. government's official web portal to all federal, state and local government web resources and services.